Flag for Netherlands Weather past 2 weeks in Montfoort, Netherlands

Now
59 °F

Passing clouds.


Feels Like: 57 °F
Forecast: 39 / 66 °F
Wind: 10 mph from Northeast

Location: Amsterdam Schiphol Airport

Current Time: May 23, 2015 at 3:44:21 PM

Latest Report: May 23, 2015 at 2:55 PM


Visibility: N/A

Pressure: 30.21 "Hg

Humidity: 63%

Dew point: 46 °F

Location of MontfoortLocation

Historic Weather in Montfoort — Graph

°F

Montfoort temperature yesterday

Maximum temperature yesterday: 66 °F (at 1:55 PM)
Minimum temperature yesterday: 54 °F (at 12:25 AM)
Average temperature yesterday: 58 °F

Past Weeks' High & Low Weather Summary

 TemperatureHumidityPressure
High75 °F (May 11, 1:55 PM)100% (May 10, 6:55 AM)30.33 "Hg (May 10, 6:55 AM)
Low41 °F (May 10, 5:55 AM)40% (May 8, 4:25 PM)29.56 "Hg (May 19, 4:25 AM)
Average54 °F73%30.05 "Hg
* Reported May 8 2:25 PM — May 23 2:25 PM, Montfoort, Weather by CustomWeather, © 2015

Note: Actual official high and low records may vary slightly from our data, if they occured in-between our weather recording intervals... More about our weather records

Advertising

Montfoort weather history for previous 24 hours

 ConditionsComfort  
Time TempWeatherWind HumidityBarometerVisibility
2:25 PM
Sat, May 23
59 °FPassing clouds.12 mph63%30.21 "HgN/A
1:55 PM57 °FPassing clouds.14 mph67%30.21 "HgN/A
1:25 PM57 °FScattered clouds.14 mph67%30.21 "HgN/A
12:55 PM57 °FScattered clouds.15 mph67%30.21 "HgN/A
12:25 PM57 °FScattered clouds.13 mph72%30.21 "HgN/A
11:55 AM55 °FBroken clouds.13 mph77%30.24 "HgN/A
11:25 AM55 °FBroken clouds.12 mph82%30.21 "HgN/A
10:55 AM55 °FBroken clouds.13 mph88%30.21 "HgN/A
10:25 AM54 °FBroken clouds.13 mph94%30.21 "HgN/A
9:55 AM52 °FBroken clouds.14 mph100%30.21 "HgN/A
9:25 AM54 °FDrizzle. Broken clouds.12 mph100%30.18 "HgN/A
8:55 AM55 °FDrizzle. Broken clouds.9 mph94%30.18 "Hg6 mi
8:25 AM55 °FDrizzle. Broken clouds.10 mph94%30.18 "Hg4 mi
7:55 AM55 °FDrizzle. Broken clouds.8 mph94%30.18 "Hg6 mi
7:25 AM55 °FDrizzle. Partly sunny.8 mph94%30.15 "HgN/A
6:55 AM55 °FPartly sunny.6 mph94%30.15 "HgN/A
6:25 AM55 °FPassing clouds.6 mph94%30.15 "Hg6 mi
5:55 AM55 °FPassing clouds.8 mph94%30.15 "Hg5 mi
5:25 AM55 °FPassing clouds.7 mph88%30.15 "Hg5 mi
4:55 AM55 °FPassing clouds.5 mph88%30.15 "HgN/A
4:25 AM55 °FPassing clouds.6 mph88%30.15 "HgN/A
3:55 AM55 °FClear.5 mph88%30.18 "Hg10 mi
3:25 AM55 °FPassing clouds.5 mph88%30.18 "HgN/A
2:55 AM55 °FPassing clouds.5 mph88%30.18 "HgN/A
2:25 AM55 °FPassing clouds.6 mph82%30.18 "HgN/A
1:55 AM55 °FClear.5 mph82%30.18 "Hg10 mi
1:25 AM55 °FPassing clouds.6 mph82%30.18 "HgN/A
12:55 AM55 °FPassing clouds.6 mph82%30.21 "HgN/A
12:25 AM55 °FPassing clouds.6 mph82%30.21 "HgN/A
11:55 PM
Fri, May 22
55 °FClear.6 mph82%30.21 "Hg10 mi
11:25 PM55 °FClear.6 mph82%30.21 "Hg10 mi
10:55 PM55 °FPassing clouds.7 mph82%30.21 "HgN/A
10:25 PM55 °FSunny.9 mph82%30.21 "Hg10 mi
9:55 PM57 °FSunny.8 mph72%30.21 "Hg10 mi
9:25 PM57 °FPassing clouds.6 mph67%30.21 "HgN/A
8:55 PM57 °FPassing clouds.3 mph67%30.21 "HgN/A
8:25 PM59 °FSunny.7 mph63%30.21 "Hg10 mi
7:55 PM59 °FSunny.7 mph68%30.21 "Hg10 mi
7:25 PM59 °FPassing clouds.9 mph72%30.21 "HgN/A
6:55 PM59 °FPassing clouds.12 mph72%30.21 "HgN/A
6:25 PM59 °FPassing clouds.13 mph68%30.21 "HgN/A
5:55 PM59 °FPassing clouds.13 mph72%30.24 "HgN/A
5:25 PM61 °FPassing clouds.14 mph68%30.24 "HgN/A
4:55 PM63 °FPassing clouds.14 mph64%30.24 "HgN/A
4:25 PM63 °FPassing clouds.15 mph59%30.24 "HgN/A
3:55 PM64 °FPassing clouds.16 mph60%30.24 "HgN/A
3:25 PM64 °FPassing clouds.16 mph60%30.24 "HgN/A
Weather by CustomWeather, © 2015

See weather overviewHow to use our weather pages